FW2439 Weather Reports


time (UTC)temp
F
wind
direction
speed
knots
gust
knots
rain 1hr
in
rain 24hr
in
rain mn
in
humidity
%
barometer
mb
20260904133016 77 222 0.0 0.0 0.00 0.00 0.00 96 1016.4
20260904131512 76 222 0.0 0.0 0.00 0.00 0.00 98 1016.2
20260904130010 74 222 0.0 0.0 0.00 0.00 0.00 99 1016.1
20260904124510 74 222 0.0 0.0 0.00 0.00 0.00 99 1016.0
20260904123009 73 222 0.0 0.0 0.00 0.00 0.00 99 1015.8
20260904121508 73 222 0.0 0.0 0.00 0.00 0.00 99 1015.7
20260904120007 72 222 0.0 0.0 0.00 0.00 0.00 99 1015.6
20260904114504 72 222 0.0 0.0 0.00 0.00 0.00 99 1015.3
20260904113002 72 222 0.0 0.0 0.00 0.00 0.00 99 1015.1
20260904111502 72 222 0.0 0.0 0.00 0.00 0.00 99 1015.0
20260904110100 72 222 0.0 0.0 0.00 0.00 0.00 99 1015.0
20260904104559 72 222 0.0 0.0 0.00 0.00 0.00 98 1014.9
20260904103059 72 222 0.0 0.0 0.00 0.00 0.00 98 1014.8
20260904101558 72 222 0.0 0.0 0.00 0.00 0.00 98 1014.8
20260904100056 73 222 0.0 0.0 0.00 0.00 0.00 98 1014.8
20260904094557 73 222 0.0 0.0 0.00 0.00 0.00 98 1014.8
20260904093055 73 222 0.0 0.0 0.00 0.00 0.00 98 1014.6
20260904091554 73 222 0.0 0.0 0.00 0.00 0.00 98 1014.5
20260904090053 73 222 0.0 0.0 0.00 0.00 0.00 98 1014.5
20260904084559 73 222 0.0 0.0 0.00 0.00 0.00 98 1014.5
20260904083053 74 222 0.0 0.0 0.00 0.00 0.00 98 1014.4
20260904081551 74 222 0.0 0.0 0.00 0.00 0.00 97 1014.3
20260904080110 74 222 0.0 0.0 0.00 0.00 0.00 97 1014.3
20260904074548 74 222 0.0 0.0 0.00 0.00 0.00 97 1014.3
20260904073046 74 222 0.0 0.0 0.00 0.00 0.00 96 1014.4
20260904071545 75 222 0.0 0.0 0.00 0.00 0.00 96 1014.3
20260904070050 75 222 0.0 0.0 0.00 0.00 0.00 96 1014.2
20260904064542 75 222 0.0 0.0 0.00 0.00 0.00 96 1014.3
20260904063103 75 222 0.0 0.0 0.00 0.00 0.00 95 1014.5
20260904061538 75 222 0.0 0.0 0.00 0.00 0.00 94 1014.4
20260904060042 75 222 0.0 0.0 0.00 0.00 0.00 94 1014.4
20260904054540 75 222 0.0 0.0 0.00 0.00 0.00 94 1014.5
20260904053043 76 222 0.0 0.0 0.00 0.00 0.00 93 1014.5
20260904051530 76 222 0.0 0.0 0.00 0.00 0.00 92 1014.5
20260904050027 76 222 0.0 0.0 0.00 0.00 0.00 92 1014.6
20260904044534 76 222 0.0 0.0 0.00 0.00 0.00 91 1014.5
20260904043037 77 222 0.0 0.0 0.00 0.00 0.00 91 1014.7
20260904041525 77 222 0.0 0.0 0.00 0.00 0.00 91 1014.8
20260904040025 77 222 0.0 0.0 0.00 0.00 0.00 91 1014.9
20260904034526 77 222 0.0 0.0 0.00 0.00 0.00 90 1014.8
20260904033030 78 222 0.0 0.0 0.00 0.00 0.00 90 1014.9
20260904031524 78 222 0.0 0.0 0.00 0.00 0.00 89 1014.8
20260904030033 78 222 0.0 0.0 0.00 0.00 0.00 89 1015.0
20260904024524 79 222 0.0 0.0 0.00 0.00 0.00 89 1014.9
20260904023022 79 222 0.0 0.0 0.00 0.00 0.00 89 1014.8
20260904021528 80 222 0.0 0.0 0.00 0.00 0.00 88 1014.5
20260904020022 80 222 0.0 0.0 0.00 0.00 0.00 86 1014.5
20260904014521 81 222 0.0 0.0 0.00 0.00 0.00 85 1014.4
20260904013020 82 222 0.0 0.0 0.00 0.00 0.00 84 1014.3
20260904011520 83 222 0.0 0.0 0.00 0.00 0.00 82 1014.1
20260904010021 83 222 0.0 0.0 0.00 0.00 0.00 80 1013.9
20260904004525 85 222 0.0 0.0 0.00 0.00 0.00 78 1013.7
20260904003022 86 222 0.0 0.0 0.00 0.00 0.00 74 1013.6
20260904001519 88 222 0.0 0.0 0.00 0.00 0.00 73 1013.5
20260904000018 89 222 0.0 0.0 0.00 0.00 0.00 70 1013.6
20260903234518 91 222 0.0 0.0 0.00 0.00 0.00 66 1013.5
20260903233029 92 222 0.0 0.0 0.00 0.00 0.00 63 1013.4
20260903231527 94 222 0.0 0.0 0.00 0.00 0.00 61 1013.3
20260903230015 96 222 0.0 0.9 0.00 0.00 0.00 57 1013.2
20260903224514 98 257 0.0 0.9 0.00 0.00 0.00 54 1013.0
20260903223013 99 283 0.0 1.7 0.00 0.00 0.00 50 1013.1
20260903221513 99 228 0.0 1.7 0.00 0.00 0.00 52 1013.1
20260903220012 100 264 0.9 2.6 0.00 0.00 0.00 49 1013.0
20260903214510 100 346 0.9 3.5 0.00 0.00 0.00 47 1013.0
20260903213008 99 243 0.9 3.5 0.00 0.00 0.00 48 1013.1
20260903211507 100 259 0.0 2.6 0.00 0.00 0.00 51 1013.2
20260903210005 99 356 0.9 3.5 0.00 0.00 0.00 48 1013.4
20260903204501 100 222 2.6 5.2 0.00 0.00 0.00 48 1013.7
20260903203058 99 311 0.9 3.5 0.00 0.00 0.00 48 1013.8
20260903201556 100 23 0.9 3.5 0.00 0.00 0.00 48 1014.0
20260903200111 100 231 0.9 3.5 0.00 0.00 0.00 54 1014.3
20260903194551 98 233 0.9 5.2 0.00 0.00 0.00 52 1014.3
20260903193046 97 228 0.0 2.6 0.00 0.00 0.00 55 1014.7
20260903191544 95 265 0.0 1.7 0.00 0.00 0.00 60 1014.8
20260903190042 96 264 0.0 1.7 0.00 0.00 0.00 54 1015.0
20260903184545 96 225 0.9 2.6 0.00 0.00 0.00 55 1015.1
20260903183046 95 220 0.9 2.6 0.00 0.00 0.00 57 1015.2
20260903181541 94 261 0.0 0.9 0.00 0.00 0.00 60 1015.3
20260903180042 96 340 0.9 2.6 0.00 0.00 0.00 55 1015.4
20260903174536 96 236 0.0 1.7 0.00 0.00 0.00 59 1015.5
20260903173034 95 219 0.0 2.6 0.00 0.00 0.00 59 1015.8
20260903171535 96 333 0.9 3.5 0.00 0.00 0.00 57 1016.0
20260903170040 96 228 0.0 2.6 0.00 0.00 0.00 59 1016.2
20260903164532 96 340 0.9 2.6 0.00 0.00 0.00 60 1016.4
20260903163035 95 316 0.0 2.6 0.00 0.00 0.00 63 1016.5
20260903161525 94 259 0.9 4.3 0.00 0.00 0.00 62 1016.7
20260903160024 94 316 0.9 2.6 0.00 0.00 0.00 64 1016.8
20260903154522 94 314 0.0 2.6 0.00 0.00 0.00 64 1016.9
20260903153018 94 233 0.0 0.9 0.00 0.00 0.00 65 1016.8
20260903151514 93 221 0.0 1.7 0.00 0.00 0.00 66 1016.8
20260903150013 93 283 0.0 0.9 0.00 0.00 0.00 67 1016.9
20260903144508 91 223 0.0 0.0 0.00 0.00 0.00 69 1017.0
20260903143003 90 247 0.0 0.0 0.00 0.00 0.00 73 1016.9
20260903141559 86 246 0.0 0.0 0.00 0.00 0.00 79 1016.9
20260903140106 82 247 0.0 0.0 0.00 0.00 0.00 87 1017.1
20260903134551 79 247 0.0 0.9 0.00 0.00 0.00 91 1017.2